De Soto, IL

2:23 PM CDT on August 27, 2016 (GMT -0500)
Southern Illinois

Weather History for KMDH - November, 2012

Change the Weather History Date:

Monday, November 12, 2012

  Actual Average Record
Temperature  
Mean Temperature 40 °F -  
Max Temperature 50 °F 56 °F 77 °F (2010)
Min Temperature 28 °F 34 °F 11 °F (1911)
Degree Days  
Heating Degree Days 25    
Moisture  
Dew Point 30 °F    
Average Humidity 73    
Maximum Humidity 94    
Minimum Humidity 37    
Precipitation  
Precipitation 0.49 in - - ()
Sea Level Pressure  
Sea Level Pressure 30.28 in    
Wind  
Wind Speed 11 mph (WNW)    
Max Wind Speed 20 mph    
Max Gust Speed 30 mph    
Visibility 9 miles    
Events Rain    
Averages and records for this station are not official NWS values.
T = Trace of Precipitation, MM = Missing Value Source: NWS Daily Summary

Daily Weather History Graph

Daily Weather History Graph

Search for Another Location

Airport or City:

Trip Planner

Search our weather history database for the weather conditions in past years. The results will help you decide how hot, cold, wet, or windy it might be!

Date:

Astronomy

Nov. 12, 2012 Rise Set
Actual Time 6:34 AM CST 4:47 PM CST
Civil Twilight 6:06 AM CST 5:15 PM CST
Nautical Twilight 5:35 AM CST 5:46 PM CST
Astronomical Twilight 5:04 AM CST 6:17 PM CST
Moon 5:00 AM CST (11/12) 3:52 PM CST (11/12)
Length of Visible Light 11h 08m
Length of Day
10h 12m
Waning Crescent, 2% of the Moon is Illuminated
Nov 12
Waning Crescent
Nov 13
New
Nov 20
First Quarter
Nov 28
Full
Dec 6
Last Quarter

Hourly Weather History & Observations

Time (CST) Temp. Windchill Dew Point Humidity Pressure Visibility Wind Dir Wind Speed Gust Speed Precip Events Conditions
12:30 AM 50.0 °F - 48.2 °F 94% 30.03 in 4.0 mi NNW 4.6 mph - 0.14 in Rain Rain
12:52 AM 48.9 °F - 46.9 °F 93% 30.06 in 4.0 mi WNW 19.6 mph 29.9 mph 0.19 in Rain Rain
12:59 AM 44.6 °F 36.9 °F 42.8 °F 93% 30.10 in 4.0 mi NW 18.4 mph 29.9 mph 0.03 in Rain Rain
1:52 AM 42.1 °F 35.2 °F 39.9 °F 92% 30.13 in 7.0 mi NW 12.7 mph 23.0 mph 0.20 in Rain Light Rain
2:03 AM 42.8 °F 36.6 °F 39.2 °F 87% 30.12 in 5.0 mi NW 11.5 mph 20.7 mph 0.02 in Rain Rain
2:12 AM 41.0 °F 32.5 °F 39.2 °F 93% 30.12 in 6.0 mi NW 17.3 mph 20.7 mph 0.04 in Rain Rain
2:35 AM 41.0 °F 34.7 °F 39.2 °F 93% 30.10 in 8.0 mi NNW 10.4 mph - 0.06 in Rain Light Rain
2:49 AM 41.0 °F 35.2 °F 37.4 °F 87% 30.14 in 10.0 mi NW 9.2 mph 20.7 mph 0.07 in Rain Light Rain
2:52 AM 41.0 °F 34.3 °F 37.9 °F 89% 30.15 in 10.0 mi NW 11.5 mph - 0.07 in Rain Light Rain
3:32 AM 39.2 °F 30.8 °F 37.4 °F 93% 30.16 in 10.0 mi NW 15.0 mph 20.7 mph 0.02 in Rain Light Rain
3:44 AM 39.2 °F 30.8 °F 37.4 °F 93% 30.15 in 7.0 mi NW 15.0 mph 21.9 mph 0.02 in Rain Light Rain
3:52 AM 39.0 °F 30.3 °F 36.0 °F 89% 30.17 in 4.0 mi NW 16.1 mph 21.9 mph 0.02 in Rain Light Rain
4:52 AM 37.0 °F 29.3 °F 34.0 °F 89% 30.20 in 9.0 mi West 11.5 mph - 0.01 in Rain Light Rain
5:08 AM 37.4 °F 28.9 °F 32.0 °F 81% 30.22 in 10.0 mi NW 13.8 mph 23.0 mph 0.00 in   Overcast
6:52 AM 35.1 °F 26.9 °F 28.0 °F 76% 30.29 in 10.0 mi NW 11.5 mph - N/A   Overcast
7:47 AM 33.8 °F 23.9 °F 21.2 °F 60% 30.32 in 10.0 mi WNW 15.0 mph 20.7 mph N/A   Scattered Clouds
7:52 AM 33.1 °F 23.4 °F 23.0 °F 66% 30.33 in 10.0 mi WNW 13.8 mph 20.7 mph N/A   Partly Cloudy
8:52 AM 35.1 °F 26.9 °F 21.9 °F 59% 30.35 in 10.0 mi NW 11.5 mph 20.7 mph N/A   Clear
9:52 AM 37.0 °F 28.9 °F 21.9 °F 54% 30.37 in 10.0 mi NW 12.7 mph 17.3 mph N/A   Clear
10:52 AM 41.0 °F 34.7 °F 21.9 °F 47% 30.39 in 10.0 mi NW 10.4 mph 20.7 mph N/A   Clear
11:52 AM 42.1 °F 35.2 °F 21.9 °F 45% 30.38 in 10.0 mi WNW 12.7 mph 20.7 mph N/A   Clear
12:52 PM 44.1 °F 40.1 °F 21.0 °F 40% 30.36 in 10.0 mi Variable 6.9 mph - N/A   Clear
1:52 PM 46.0 °F 41.9 °F 21.0 °F 37% 30.35 in 10.0 mi West 8.1 mph - N/A   Clear
2:52 PM 46.0 °F 42.5 °F 21.9 °F 39% 30.35 in 10.0 mi West 6.9 mph - N/A   Clear
3:52 PM 45.0 °F 41.2 °F 21.0 °F 39% 30.37 in 10.0 mi WSW 6.9 mph - N/A   Clear
4:52 PM 43.0 °F - 19.9 °F 40% 30.39 in 10.0 mi Calm Calm - N/A   Clear
5:52 PM 37.9 °F 34.4 °F 25.0 °F 60% 30.40 in 10.0 mi South 4.6 mph - N/A   Clear
6:52 PM 37.9 °F 35.5 °F 24.1 °F 57% 30.42 in 10.0 mi SW 3.5 mph - N/A   Clear
7:52 PM 32.0 °F 27.5 °F 27.0 °F 82% 30.44 in 10.0 mi SSW 4.6 mph - N/A   Clear
8:52 PM 30.9 °F - 28.9 °F 92% 30.45 in 10.0 mi Calm Calm - N/A   Clear
9:52 PM 32.0 °F - 26.1 °F 79% 30.47 in 10.0 mi Calm Calm - N/A   Clear
10:52 PM 30.0 °F - 28.0 °F 92% 30.47 in 10.0 mi Calm Calm - N/A   Clear
11:52 PM 28.9 °F 25.2 °F 27.0 °F 92% 30.47 in 10.0 mi South 3.5 mph - N/A   Clear